Starlink 36180

operational
NORAD ID: 67114 Int'l Des: 2025-299 Owner: SPXS Country: US Constellation: starlink
LEOCIRCULAR

Über Starlink 36180

Beschreibung wird geladen...

Live-Position

3D-Globus wird geladen...

Nächste Überflüge

Höhenverlauf

Altitude vs Time

uPlot chart will show altitude changes over time

Zweizeiliger Elementsatz

1 67114C 25299N 25349.43520833 .00348990 00000+0 54974-3 0 3490
2 67114 43.0014 301.4635 0007305 266.7630 339.7135 16.02488676 10
Epoch: 15. Dez. 2025 • Age: 68 hours

Aktueller Status

Höhe 263.9 km
Geschwindigkeit 7.75 km/s
Subsatellitenpunkt 22.88°N, 71.68°W
Startdatum 15. Dez. 2025
Alter 2 days
Typ internet

Technische Details

Klassifizierung Payload
Masse 575.00 kg
Trockenmasse 530.00 kg
Gesamtmasse 575.00 kg
Länge 0.30 m
Durchmesser 4.10 m
Spannweite 29.00 m
Form Box + pan
Hersteller SPXS
Bus-Typ Starlink V2MO
Phasenstatus In Orbit
Besitzer/Staat SPXS/US

Große Konstellationen

Loading constellations...